DW9932 Weather Reports


Display with metric or nautical units.
time (UTC)temp
F
wind
direction
speed
MPH
gust
MPH
rain 1hr
in
rain 24hr
in
rain mn
in
humidity
%
barometer
mb
20190121115705 35 292 0.0 3.0 0.00 0.06 0.00 87 1024.3
20190121115205 36 292 0.0 1.0 0.00 0.06 0.00 90 1024.3
20190121114705 36 22 0.0 3.0 0.00 0.06 0.00 91 1024.3
20190121114206 36 68 0.0 5.0 0.00 0.06 0.00 90 1024.3
20190121113705 35 112 0.0 5.0 0.00 0.06 0.00 91 1024.3
20190121113205 36 68 0.0 5.0 0.00 0.06 0.00 93 1024.3
20190121112705 36 22 0.0 3.0 0.00 0.06 0.00 95 1024.3
20190121112205 36 0 0.0 0.0 0.00 0.06 0.00 97 1024.3
20190121111705 36 22 0.0 0.0 0.00 0.06 0.00 97 1024.3
20190121111205 35 0 0.0 0.0 0.00 0.06 0.00 98 1024.3
20190121110705 35 338 0.0 3.0 0.00 0.06 0.00 98 1024.3
20190121110205 35 22 0.0 3.0 0.00 0.06 0.00 98 1024.3
20190121105705 35 45 0.0 3.0 0.00 0.06 0.00 99 1024.3
20190121105205 35 292 0.0 3.0 0.00 0.06 0.00 99 1024.3
20190121104705 35 22 0.0 3.0 0.00 0.08 0.00 100 1024.3
20190121104205 35 338 0.0 3.0 0.00 0.08 0.00 100 1024.3
20190121103705 35 338 0.0 3.0 0.00 0.08 0.00 100 1024.3
20190121103205 35 22 1.0 1.0 0.00 0.08 0.00 100 1024.3
20190121102705 35 338 0.0 2.0 0.00 0.08 0.00 100 1024.3
20190121102205 35 338 0.0 2.0 0.00 0.08 0.00 100 1024.3
20190121101706 35 338 0.0 2.0 0.00 0.08 0.00 100 1024.3
20190121101206 35 292 0.0 4.0 0.00 0.08 0.00 100 1024.3
20190121100705 35 270 0.0 4.0 0.00 0.08 0.00 100 1024.3
20190121100205 35 315 0.0 4.0 0.00 0.08 0.00 100 1024.3
20190121095705 35 292 3.0 3.0 0.00 0.08 0.00 100 1024.3
20190121095205 35 315 0.0 3.0 0.00 0.08 0.00 100 1023.3
20190121094705 34 45 0.0 3.0 0.00 0.08 0.00 100 1023.3
20190121094205 34 0 0.0 3.0 0.00 0.08 0.00 100 1023.3
20190121093205 35 338 2.0 2.0 0.00 0.08 0.00 100 1024.3
20190121092705 34 22 0.0 2.0 0.00 0.08 0.00 100 1024.3
20190121092205 34 0 0.0 2.0 0.00 0.08 0.00 100 1024.3
20190121091705 34 338 0.0 3.0 0.00 0.08 0.00 100 1024.3
20190121091205 34 45 0.0 6.0 0.00 0.10 0.00 100 1024.3
20190121090705 33 338 0.0 6.0 0.00 0.10 0.00 100 1024.3
20190121090205 33 292 3.0 4.0 0.00 0.10 0.00 100 1024.3
20190121085705 33 292 1.0 4.0 0.00 0.10 0.00 100 1024.3
20190121085205 33 338 3.0 5.0 0.00 0.10 0.00 100 1023.3
20190121084706 33 315 2.0 5.0 0.00 0.10 0.00 100 1023.3
20190121084205 33 0 4.0 5.0 0.00 0.10 0.00 100 1024.3
20190121083705 33 338 4.0 5.0 0.00 0.10 0.00 100 1024.3
20190121083205 33 338 4.0 4.0 0.00 0.10 0.00 100 1024.3
20190121082706 33 338 1.0 4.0 0.00 0.12 0.00 100 1024.3
20190121082205 33 338 4.0 4.0 0.00 0.12 0.00 100 1024.3
20190121081705 33 338 1.0 4.0 0.00 0.12 0.00 100 1024.3
20190121081206 33 315 1.0 5.0 0.00 0.12 0.00 100 1024.3
20190121080705 33 22 1.0 5.0 0.00 0.12 0.00 100 1024.3
20190121080205 33 338 1.0 5.0 0.00 0.12 0.00 100 1024.3
20190121075705 33 338 4.0 3.0 0.00 0.12 0.00 100 1024.3
20190121075205 33 22 0.0 4.0 0.00 0.12 0.00 100 1024.3
20190121074705 33 338 0.0 4.0 0.00 0.12 0.00 100 1024.3
20190121074206 32 338 0.0 4.0 0.00 0.12 0.00 100 1024.3
20190121073706 32 292 0.0 4.0 0.00 0.12 0.00 100 1024.3
20190121073205 32 315 1.0 2.0 0.00 0.12 0.00 100 1024.3
20190121072705 32 338 0.0 2.0 0.00 0.12 0.00 100 1024.3
20190121072205 32 0 0.0 0.0 0.00 0.12 0.00 100 1024.3
20190121071706 32 315 0.0 3.0 0.00 0.12 0.00 100 1024.3
20190121071205 32 22 0.0 3.0 0.00 0.12 0.00 100 1024.3
20190121070705 32 315 0.0 3.0 0.00 0.12 0.00 100 1023.3
20190121070205 32 338 2.0 3.0 0.00 0.12 0.00 100 1023.3
20190121065705 32 315 0.0 1.0 0.00 0.12 0.00 100 1023.3
20190121065205 32 338 0.0 1.0 0.00 0.14 0.00 100 1023.3
20190121064707 32 315 0.0 1.0 0.00 0.14 0.00 100 1023.3
20190121064205 32 0 0.0 2.0 0.00 0.14 0.00 100 1023.3
20190121063705 32 338 0.0 2.0 0.00 0.14 0.00 100 1023.3
20190121063205 32 338 0.0 3.0 0.00 0.14 0.00 100 1023.3
20190121062705 32 0 0.0 3.0 0.00 0.14 0.00 100 1023.3
20190121062206 32 0 0.0 3.0 0.00 0.14 0.00 100 1022.3
20190121061705 32 338 1.0 3.0 0.00 0.14 0.00 100 1022.3
20190121061206 32 22 0.0 3.0 0.00 0.14 0.00 100 1022.3
20190121060705 32 22 0.0 3.0 0.00 0.14 0.00 100 1022.3
20190121060205 32 22 0.0 3.0 0.00 0.14 0.00 100 1022.3
20190121055705 32 315 2.0 1.0 0.00 0.14 0.00 100 1022.3
20190121055205 32 338 0.0 4.0 0.00 0.14 0.00 100 1022.3
20190121054705 32 22 0.0 4.0 0.00 0.14 0.00 100 1022.3
20190121054205 32 315 0.0 4.0 0.00 0.14 0.00 100 1022.3
20190121053705 32 315 3.0 4.0 0.00 0.14 0.00 100 1022.3
20190121053205 32 315 0.0 4.0 0.00 0.14 0.00 100 1022.3
20190121052705 32 315 2.0 4.0 0.00 0.14 0.00 100 1022.3
20190121052206 32 338 2.0 3.0 0.00 0.14 0.00 100 1022.3
20190121051705 32 292 0.0 3.0 0.00 0.14 0.00 100 1022.3
20190121051205 32 292 1.0 3.0 0.00 0.14 0.00 100 1022.3
20190121050705 32 270 0.0 2.0 0.00 0.16 0.00 100 1022.3
20190121050205 32 292 0.0 0.0 0.00 0.16 0.00 100 1022.3
20190121045705 32 292 0.0 0.0 0.00 0.16 0.00 100 1022.3
20190121045205 32 292 0.0 2.0 0.00 0.16 0.00 100 1022.3
20190121044705 32 292 0.0 2.0 0.00 0.16 0.00 100 1022.3
20190121044205 32 315 0.0 3.0 0.00 0.16 0.00 100 1022.3
20190121043705 32 292 0.0 3.0 0.00 0.16 0.00 100 1022.3
20190121043205 32 315 0.0 3.0 0.00 0.16 0.00 100 1022.3
20190121042705 32 315 2.0 1.0 0.00 0.16 0.00 100 1022.3
20190121042205 32 315 0.0 1.0 0.00 0.16 0.00 100 1021.3
20190121041705 32 292 0.0 0.0 0.00 0.16 0.00 100 1021.3
20190121041205 32 292 0.0 2.0 0.00 0.16 0.00 100 1021.3
20190121040706 32 292 0.0 4.0 0.00 0.16 0.00 100 1022.3
20190121040206 32 292 0.0 6.0 0.00 0.16 0.00 100 1022.3
20190121035706 32 292 1.0 6.0 0.00 0.16 0.00 100 1022.3
20190121035205 32 315 3.0 6.0 0.00 0.16 0.00 100 1022.3
20190121034705 32 292 2.0 3.0 0.00 0.16 0.00 100 1022.3
20190121034205 32 338 1.0 3.0 0.00 0.16 0.00 100 1022.3
20190121033704 32 315 3.0 4.0 0.00 0.16 0.00 100 1022.3
20190121033205 32 0 0.0 4.0 0.00 0.16 0.00 100 1022.3
20190121032705 32 338 0.0 4.0 0.00 0.16 0.00 100 1022.3
20190121032205 32 315 0.0 4.0 0.00 0.16 0.00 100 1022.3
20190121031705 32 338 1.0 4.0 0.00 0.16 0.00 100 1022.3
20190121031206 32 338 3.0 1.0 0.00 0.16 0.00 100 1022.3
20190121030705 32 0 0.0 0.0 0.00 0.16 0.00 100 1022.3
20190121030205 32 338 0.0 0.0 0.00 0.16 0.00 100 1022.3
20190121025706 32 315 0.0 1.0 0.00 0.16 0.00 100 1022.3
20190121025206 32 338 0.0 2.0 0.00 0.16 0.00 100 1022.3
20190121024706 32 0 0.0 3.0 0.00 0.16 0.00 100 1022.3
20190121024205 32 315 0.0 5.0 0.00 0.16 0.00 100 1022.3
20190121023705 32 338 1.0 5.0 0.00 0.16 0.00 100 1022.3
20190121023205 32 0 1.0 5.0 0.00 0.16 0.00 100 1022.3
20190121022705 32 338 1.0 5.0 0.00 0.16 0.00 100 1022.3
20190121022205 32 338 1.0 5.0 0.00 0.16 0.00 100 1022.3
20190121021705 32 338 2.0 4.0 0.00 0.16 0.00 100 1022.3
20190121021206 32 315 3.0 4.0 0.00 0.16 0.00 100 1022.3
20190121020705 32 315 0.0 6.0 0.00 0.16 0.00 100 1022.3
20190121020205 32 292 0.0 6.0 0.00 0.16 0.00 100 1022.3
20190121015705 32 338 2.0 6.0 0.00 0.16 0.00 100 1022.3
20190121015205 32 338 3.0 4.0 0.00 0.16 0.00 100 1022.3
20190121014706 32 338 1.0 5.0 0.00 0.16 0.00 100 1022.3
20190121014205 32 338 2.0 5.0 0.00 0.16 0.00 100 1022.3
20190121013705 32 292 3.0 6.0 0.00 0.16 0.00 100 1022.3
20190121013205 32 338 3.0 6.0 0.00 0.16 0.00 100 1022.3
20190121012706 32 338 4.0 4.0 0.00 0.16 0.00 100 1022.3
20190121012205 32 292 2.0 6.0 0.00 0.16 0.00 100 1022.3
20190121011705 32 338 3.0 6.0 0.00 0.16 0.00 100 1022.3
20190121011206 32 0 2.0 6.0 0.00 0.16 0.00 100 1022.3
20190121010706 32 338 3.0 6.0 0.00 0.16 0.00 100 1022.3
20190121010205 32 292 3.0 6.0 0.00 0.16 0.00 100 1022.3
20190121005705 32 338 2.0 6.0 0.00 0.16 0.00 100 1022.3
20190121005205 32 292 2.0 4.0 0.00 0.16 0.00 100 1022.3
20190121004705 32 292 0.0 4.0 0.00 0.16 0.00 100 1022.3
20190121004205 32 292 0.0 5.0 0.00 0.16 0.00 100 1022.3
20190121003705 32 292 2.0 5.0 0.00 0.16 0.00 100 1021.3
20190121003205 32 292 1.0 5.0 0.00 0.16 0.00 100 1021.3
20190121002705 32 292 3.0 4.0 0.00 0.16 0.00 100 1021.3
20190121002206 32 292 3.0 6.0 0.00 0.16 0.00 100 1022.3
20190121001705 32 292 0.0 6.0 0.00 0.16 0.00 100 1022.3
20190121001205 32 292 4.0 6.0 0.00 0.16 0.00 100 1022.3
20190121000705 32 292 3.0 5.0 0.00 0.16 0.00 100 1021.3
20190121000206 32 292 0.0 4.0 0.00 0.16 0.00 100 1021.3
20190120235705 32 315 0.0 5.0 0.00 0.16 0.00 100 1021.3
20190120235206 32 292 3.0 5.0 0.00 0.16 0.00 100 1022.3
20190120234705 32 270 3.0 6.0 0.00 0.16 0.00 100 1022.3
20190120234205 32 292 3.0 6.0 0.00 0.16 0.00 100 1022.3
20190120233706 32 315 4.0 6.0 0.00 0.16 0.00 100 1022.3
20190120233205 32 315 4.0 6.0 0.00 0.16 0.00 100 1022.3
20190120232705 32 315 4.0 6.0 0.00 0.16 0.00 100 1022.3
20190120232205 32 292 4.0 5.0 0.00 0.16 0.00 100 1021.3
20190120231706 32 292 2.0 5.0 0.00 0.16 0.00 100 1021.3
20190120231205 32 292 3.0 5.0 0.00 0.16 0.00 100 1021.3
20190120230705 32 315 0.0 5.0 0.00 0.16 0.00 100 1021.3
20190120225705 32 292 3.0 5.0 0.00 0.16 0.00 100 1021.3
20190120225205 32 315 1.0 5.0 0.00 0.16 0.00 100 1021.3
20190120224705 32 338 3.0 6.0 0.00 0.16 0.00 100 1021.3
20190120224206 32 292 2.0 6.0 0.00 0.16 0.00 100 1021.3
20190120223706 32 292 3.0 6.0 0.00 0.16 0.00 100 1021.3
20190120223205 32 315 3.0 4.0 0.00 0.16 0.00 100 1021.3
20190120222705 32 292 1.0 5.0 0.00 0.16 0.00 100 1021.3
20190120222206 32 292 3.0 6.0 0.00 0.16 0.00 100 1021.3
20190120221705 32 292 1.0 6.0 0.00 0.16 0.00 100 1021.3
20190120221205 32 292 4.0 6.0 0.00 0.16 0.00 100 1021.3
20190120220705 32 292 3.0 4.0 0.00 0.16 0.00 100 1021.3
20190120220206 32 315 1.0 6.0 0.00 0.16 0.16 100 1021.3
20190120215706 32 292 0.0 6.0 0.00 0.16 0.16 100 1021.3
20190120215205 32 315 1.0 7.0 0.00 0.16 0.16 100 1021.3
20190120214705 33 270 3.0 8.0 0.00 0.16 0.16 100 1021.3
20190120214205 33 315 4.0 8.0 0.00 0.16 0.16 100 1021.3
20190120213705 33 315 6.0 6.0 0.00 0.16 0.16 100 1021.3
20190120213205 33 292 4.0 6.0 0.00 0.16 0.16 100 1021.3
20190120212705 33 292 3.0 6.0 0.00 0.16 0.16 100 1021.3
20190120212205 33 248 3.0 6.0 0.00 0.16 0.16 100 1020.3
20190120211706 33 292 4.0 6.0 0.00 0.16 0.16 100 1020.3
20190120211205 33 270 2.0 6.0 0.00 0.16 0.16 100 1020.3
20190120210705 33 270 2.0 6.0 0.00 0.16 0.16 100 1020.3
20190120210205 33 270 2.0 6.0 0.00 0.16 0.16 100 1020.3
20190120205705 33 270 4.0 6.0 0.00 0.16 0.16 100 1020.3
20190120205205 33 248 0.0 6.0 0.00 0.16 0.16 100 1020.3
20190120204707 33 270 3.0 6.0 0.00 0.16 0.16 100 1020.3
20190120204206 33 292 3.0 6.0 0.00 0.16 0.16 100 1020.3
20190120203705 33 292 0.0 6.0 0.00 0.16 0.16 100 1020.3
20190120203205 33 292 3.0 6.0 0.00 0.16 0.16 100 1020.3
20190120202706 33 248 0.0 6.0 0.00 0.16 0.16 100 1020.3
20190120202205 33 248 5.0 5.0 0.00 0.16 0.16 100 1020.3
20190120201705 33 248 4.0 7.0 0.00 0.16 0.16 100 1020.3
20190120201206 33 248 3.0 7.0 0.00 0.16 0.16 100 1020.3
20190120200705 33 292 5.0 7.0 0.00 0.16 0.16 100 1020.3
20190120200205 33 270 5.0 7.0 0.00 0.16 0.16 100 1020.3
20190120195705 33 270 3.0 7.0 0.00 0.16 0.16 100 1020.3
20190120195205 33 292 4.0 7.0 0.00 0.16 0.16 100 1020.3
20190120194705 33 292 6.0 7.0 0.00 0.16 0.16 100 1020.3
20190120194205 33 248 4.0 7.0 0.00 0.16 0.16 100 1020.3
20190120193706 33 292 4.0 6.0 0.00 0.16 0.16 100 1020.3
20190120193205 33 248 5.0 6.0 0.00 0.16 0.16 100 1020.3
20190120192706 33 292 4.0 6.0 0.00 0.16 0.16 100 1020.3
20190120192205 33 270 4.0 6.0 0.00 0.16 0.16 100 1020.3
20190120191705 33 270 4.0 6.0 0.00 0.16 0.16 100 1020.3
20190120191205 33 248 3.0 6.0 0.00 0.16 0.16 100 1020.3
20190120190705 33 248 0.0 6.0 0.00 0.16 0.16 100 1019.3
20190120190205 33 248 4.0 6.0 0.00 0.16 0.16 100 1019.3
20190120185705 33 270 4.0 6.0 0.02 0.16 0.16 100 1019.3
20190120185205 33 292 4.0 6.0 0.02 0.16 0.16 100 1019.3
20190120184705 33 270 1.0 6.0 0.02 0.16 0.16 100 1019.3
20190120184205 33 248 3.0 7.0 0.02 0.16 0.16 100 1019.3
20190120183705 33 248 4.0 7.0 0.02 0.16 0.16 100 1019.3
20190120183206 33 248 5.0 7.0 0.02 0.16 0.16 100 1019.3
20190120182706 33 248 5.0 6.0 0.02 0.16 0.16 100 1019.3
20190120182205 33 270 4.0 6.0 0.02 0.16 0.16 100 1019.3
20190120181705 33 248 4.0 6.0 0.02 0.16 0.16 100 1019.3
20190120181205 33 248 3.0 6.0 0.02 0.16 0.16 100 1019.3
20190120180706 33 270 0.0 6.0 0.02 0.16 0.16 100 1018.3
20190120180206 33 270 0.0 6.0 0.00 0.14 0.14 100 1018.3
20190120175705 33 248 4.0 6.0 0.00 0.14 0.14 100 1018.3
20190120175205 33 248 4.0 6.0 0.00 0.14 0.14 100 1018.3
20190120174706 33 248 4.0 8.0 0.00 0.14 0.14 100 1018.3
20190120174205 33 248 5.0 8.0 0.00 0.14 0.14 100 1018.3
20190120173705 33 202 4.0 6.0 0.00 0.14 0.14 100 1018.3
20190120173206 33 248 4.0 6.0 0.00 0.14 0.14 100 1018.3
20190120172704 33 270 4.0 6.0 0.00 0.14 0.14 100 1018.3
20190120172206 33 248 3.0 6.0 0.00 0.14 0.14 100 1018.3
20190120171706 33 248 4.0 6.0 0.00 0.14 0.14 100 1018.3
20190120171205 33 248 4.0 4.0 0.00 0.14 0.14 100 1018.3
20190120170705 33 248 0.0 4.0 0.00 0.14 0.14 100 1018.3
20190120170205 33 202 1.0 5.0 0.00 0.14 0.14 100 1018.3
20190120165705 33 248 3.0 6.0 0.00 0.14 0.14 100 1018.3
20190120165206 33 202 2.0 6.0 0.00 0.14 0.14 100 1018.3
20190120164705 33 202 0.0 6.0 0.00 0.14 0.14 100 1018.3
20190120164206 33 202 2.0 5.0 0.00 0.14 0.14 100 1018.3
20190120163705 33 180 0.0 5.0 0.00 0.14 0.14 100 1018.3
20190120163205 33 202 4.0 5.0 0.00 0.14 0.14 100 1018.3
20190120162705 33 202 0.0 5.0 0.00 0.14 0.14 100 1018.3
20190120162205 33 202 3.0 5.0 0.00 0.14 0.14 100 1018.3
20190120161706 33 202 2.0 5.0 0.00 0.14 0.14 100 1018.3
20190120161205 33 158 3.0 4.0 0.00 0.14 0.14 100 1018.3
20190120160705 33 202 3.0 4.0 0.00 0.14 0.14 100 1018.3
20190120160206 33 202 3.0 7.0 0.00 0.14 0.14 100 1018.3
20190120155705 33 202 0.0 7.0 0.00 0.14 0.14 100 1018.3
20190120155204 33 202 2.0 6.0 0.00 0.14 0.14 100 1018.3
20190120154705 33 202 4.0 6.0 0.00 0.14 0.14 100 1018.3
20190120154205 33 202 4.0 6.0 0.00 0.14 0.14 100 1018.3
20190120153705 33 202 2.0 6.0 0.00 0.14 0.14 100 1018.3
20190120153205 33 202 4.0 7.0 0.00 0.14 0.14 100 1018.3
20190120152705 33 202 4.0 7.0 0.00 0.14 0.14 100 1018.3
20190120152205 33 158 5.0 8.0 0.00 0.14 0.14 100 1018.3
20190120151706 33 202 2.0 8.0 0.00 0.14 0.14 100 1018.3
20190120151206 33 202 4.0 8.0 0.00 0.14 0.14 100 1018.3
20190120150705 33 202 3.0 6.0 0.00 0.14 0.14 100 1018.3
20190120150205 33 158 4.0 7.0 0.00 0.14 0.14 100 1018.3
20190120145705 33 158 3.0 7.0 0.00 0.14 0.14 100 1018.3
20190120145205 33 202 3.0 7.0 0.02 0.14 0.14 100 1018.3
20190120144706 33 202 3.0 6.0 0.02 0.14 0.14 100 1018.3
20190120144205 33 158 4.0 6.0 0.02 0.14 0.14 100 1018.3
20190120143705 33 180 3.0 9.0 0.02 0.14 0.14 100 1018.3
20190120143206 33 158 4.0 9.0 0.02 0.14 0.14 100 1018.3
20190120142705 33 202 4.0 9.0 0.02 0.14 0.14 100 1018.3
20190120142205 33 202 4.0 7.0 0.02 0.14 0.14 100 1018.3
20190120141706 33 202 4.0 7.0 0.02 0.14 0.14 100 1018.3
20190120141205 33 202 3.0 8.0 0.02 0.14 0.14 100 1018.3
20190120140705 33 158 0.0 8.0 0.02 0.14 0.14 100 1017.2
20190120140205 33 202 4.0 8.0 0.02 0.14 0.14 100 1017.2
20190120135706 33 158 6.0 8.0 0.02 0.14 0.14 100 1017.2
20190120135205 33 202 4.0 9.0 0.00 0.12 0.12 100 1017.2
20190120134705 33 202 4.0 9.0 0.00 0.12 0.12 100 1017.2
20190120134205 34 158 4.0 9.0 0.00 0.12 0.12 100 1017.2
20190120133707 34 202 7.0 9.0 0.00 0.12 0.12 100 1017.2
20190120133204 34 202 6.0 7.0 0.00 0.12 0.12 100 1017.2
20190120132705 34 202 5.0 7.0 0.00 0.12 0.12 100 1017.2
20190120132205 34 202 4.0 7.0 0.00 0.12 0.12 100 1017.2
20190120131705 34 202 5.0 6.0 0.00 0.12 0.12 100 1017.2
20190120131206 34 202 0.0 6.0 0.00 0.12 0.12 100 1017.2
20190120130705 34 202 0.0 5.0 0.02 0.12 0.12 100 1017.2
20190120130205 34 202 0.0 5.0 0.02 0.12 0.12 100 1017.2
20190120125705 34 248 0.0 5.0 0.02 0.12 0.12 100 1017.2
20190120125206 34 202 3.0 0.0 0.02 0.12 0.12 100 1017.2
20190120124705 34 135 0.0 0.0 0.02 0.12 0.12 100 1017.2
20190120124205 34 135 0.0 0.0 0.02 0.12 0.12 100 1017.2
20190120123706 34 135 0.0 0.0 0.02 0.12 0.12 100 1017.2
20190120123205 34 135 0.0 0.0 0.02 0.12 0.12 100 1017.2
20190120122705 34 135 0.0 0.0 0.02 0.12 0.12 100 1017.2
20190120122206 34 135 0.0 0.0 0.02 0.12 0.12 100 1017.2
20190120121705 34 135 0.0 0.0 0.02 0.12 0.12 100 1017.2
20190120121205 34 135 0.0 0.0 0.00 0.10 0.10 100 1017.2
20190120120705 34 135 0.0 0.0 0.00 0.10 0.10 100 1017.2
20190120120206 34 135 0.0 0.0 0.00 0.10 0.10 100 1017.2